Location: Mountain Grove
(34.0887°N, 86.6172°W)
Time: 14:29:07
(UTC+00:00)

Resurs 1-4 Rocket - Pass Details

Date: 14 July 2020
Orbit: 800 x 814 km, 98.6° (Epoch: 12 August)

Event Time Altitude Azimuth Distance (km) Brightness Sun altitude
Rises 08:09:28 0° 360° (N) 3,339 6.1 -25.5°
Reaches altitude 10° 08:12:04 10° 349° (N) 2,402 5.1 -25.2°
Maximum altitude 08:16:34 29° 291° (WNW) 1,445 3.2 -24.6°
Enters shadow 08:16:39 29° 289° (WNW) 1,445 3.2 -24.6°
